EA3BNF-1 Weather Reports


Display with metric or nautical units.
time (UTC)temp
F
wind
direction
speed
MPH
gust
MPH
rain 1hr
in
rain 24hr
in
rain mn
in
humidity
%
barometer
mb
20260504205748 61 0.0 0.0 0.00 0.00 0.00 72 1012.6
20260504204653 62 0.0 0.0 0.00 0.00 0.00 70 1012.7
20260504203557 62 0.0 0.0 0.00 0.00 0.00 71 1012.5
20260504202500 62 0.0 0.0 0.00 0.00 0.00 69 1012.4
20260504201404 63 0.0 0.0 0.00 0.00 0.00 69 1012.3
20260504200307 63 0.0 0.0 0.00 0.00 0.00 69 1012.2
20260504195211 63 0.0 0.0 0.00 0.00 0.00 70 1012.1
20260504194115 63 0.0 0.0 0.00 0.00 0.00 70 1012.0
20260504193019 63 0.0 0.0 0.00 0.00 0.00 72 1012.0
20260504191923 64 0.0 0.0 0.00 0.00 0.00 71 1012.1
20260504190828 66 0.0 0.0 0.00 0.00 0.00 68 1012.1
20260504185733 66 0.0 0.0 0.00 0.00 0.00 69 1012.0
20260504184637 67 0.0 0.0 0.00 0.00 0.00 69 1012.1
20260504183541 67 0.0 0.0 0.00 0.00 0.00 68 1011.8
20260504182445 68 0.0 0.0 0.00 0.00 0.00 67 1011.8
20260504181350 69 0.0 0.0 0.00 0.00 0.00 69 1011.5
20260504180254 69 0.0 0.0 0.00 0.00 0.00 68 1011.4
20260504175159 69 0.0 0.0 0.00 0.00 0.00 67 1011.2
20260504174103 70 0.0 0.0 0.00 0.00 0.00 67 1011.0
20260504173008 71 0.0 0.0 0.00 0.00 0.00 66 1010.8
20260504171912 71 0.0 0.0 0.00 0.00 0.00 65 1010.8
20260504170816 71 0.0 0.0 0.00 0.00 0.00 65 1010.9
20260504160242 72 0.0 0.0 0.00 0.00 0.00 64 1010.8
20260504150804 73 0.0 0.0 0.00 0.00 0.00 63 1011.1
20260504141326 73 0.0 0.0 0.00 0.00 0.00 63 1011.5
20260504140231 74 0.0 0.0 0.00 0.00 0.00 62 1011.4
20260504130752 72 0.0 0.0 0.00 0.00 0.00 64 1011.6
20260504120218 72 0.0 0.0 0.00 0.00 0.00 68 1012.3
20260504100206 72 0.0 0.0 0.00 0.00 0.00 65 1012.5
20260504081249 70 0.0 0.0 0.00 0.00 0.00 66 1012.9
20260504080153 69 0.0 0.0 0.00 0.00 0.00 67 1013.0
20260504060142 64 0.0 0.0 0.00 0.00 0.00 73 1013.0
20260504050703 63 0.0 0.0 0.00 0.00 0.00 72 1012.9
20260504045607 63 0.0 0.0 0.00 0.00 0.00 72 1013.0
20260504044512 63 0.0 0.0 0.00 0.00 0.00 72 1013.0
20260504043416 63 0.0 0.0 0.00 0.00 0.00 72 1013.1
20260504042321 63 0.0 0.0 0.00 0.00 0.00 72 1013.1
20260504041225 63 0.0 0.0 0.00 0.00 0.00 72 1013.1
20260504040129 63 0.0 0.0 0.00 0.00 0.00 71 1013.3
20260504035034 63 0.0 0.0 0.00 0.00 0.00 72 1013.4
20260504033938 63 0.0 0.0 0.00 0.00 0.00 71 1013.4
20260504032842 63 0.0 0.0 0.00 0.00 0.00 71 1013.5
20260504031747 62 0.0 0.0 0.00 0.00 0.00 73 1013.4
20260504030651 62 0.0 0.0 0.00 0.00 0.00 72 1013.4
20260504025555 62 0.0 0.0 0.00 0.00 0.00 72 1013.5
20260504024459 62 0.0 0.0 0.00 0.00 0.00 72 1013.5
20260504023404 62 0.0 0.0 0.00 0.00 0.00 72 1013.3
20260504022308 62 0.0 0.0 0.00 0.00 0.00 71 1013.3
20260504021213 62 0.0 0.0 0.00 0.00 0.00 72 1013.3
20260504020117 62 0.0 0.0 0.00 0.00 0.00 72 1013.2
20260504015021 62 0.0 0.0 0.00 0.00 0.00 70 1013.4
20260504013925 63 0.0 0.0 0.00 0.00 0.00 71 1013.5
20260504012830 63 0.0 0.0 0.00 0.00 0.00 71 1013.7
20260504011734 63 0.0 0.0 0.00 0.00 0.00 71 1013.8
20260504010639 63 0.0 0.0 0.00 0.00 0.00 71 1014.0
20260504005543 63 0.0 0.0 0.00 0.00 0.00 71 1013.9
20260504004448 63 0.0 0.0 0.00 0.00 0.00 70 1014.0
20260504003352 63 0.0 0.0 0.00 0.00 0.00 69 1014.1
20260504002256 63 0.0 0.0 0.00 0.00 0.00 69 1014.2
20260504001201 63 0.0 0.0 0.00 0.00 0.00 70 1014.2
20260504000105 63 0.0 0.0 0.00 0.00 0.00 69 1014.2
20260503235010 63 0.0 0.0 0.00 0.00 0.00 69 1014.2
20260503233914 63 0.0 0.0 0.00 0.00 0.00 69 1014.1
20260503232818 63 0.0 0.0 0.00 0.00 0.00 69 1014.2
20260503231723 63 0.0 0.0 0.00 0.00 0.00 69 1014.4
20260503230627 64 0.0 0.0 0.00 0.00 0.00 69 1014.4
20260503225531 64 0.0 0.0 0.00 0.00 0.00 69 1014.4
20260503224435 64 0.0 0.0 0.00 0.00 0.00 69 1014.4
20260503223339 64 0.0 0.0 0.00 0.00 0.00 69 1014.5
20260503222244 64 0.0 0.0 0.00 0.00 0.00 69 1014.4
20260503221148 64 0.0 0.0 0.00 0.00 0.00 69 1014.4
20260503220053 63 0.0 0.0 0.00 0.00 0.00 69 1014.4
20260503214957 63 0.0 0.0 0.00 0.00 0.00 69 1014.4
20260503213901 63 0.0 0.0 0.00 0.00 0.00 70 1014.3
20260503212806 63 0.0 0.0 0.00 0.00 0.00 70 1014.3
20260503211710 63 0.0 0.0 0.00 0.00 0.00 71 1014.3
20260503210615 63 0.0 0.0 0.00 0.00 0.00 71 1014.3